Weather History for Sidney-Richland, MT

Change the Weather History Date:

Wednesday, September 25, 2013

  Actual Average Record
Temperature  
Mean Temperature 58 °F -  
Max Temperature 66 °F 70 °F 96 °F (2014)
Min Temperature 50 °F 39 °F 23 °F (1912)
Degree Days  
Heating Degree Days 7    
Growing Degree Days 8 (Base 50)    
Moisture  
Dew Point 45 °F    
Average Humidity 63    
Maximum Humidity 88    
Minimum Humidity 45    
Precipitation  
Precipitation 0.12 in - - ()
Sea Level Pressure  
Sea Level Pressure 29.63 in    
Wind  
Wind Speed 9 mph (West)    
Max Wind Speed 16 mph    
Max Gust Speed 22 mph    
Visibility 10 miles    
Events      
Averages and records for this station are not official NWS values.
T = Trace of Precipitation, MM = Missing Value Source: NWS Daily Summary

Daily Weather History Graph

Daily Weather History Graph

Search for Another Location

Airport:

Trip Planner

Search our weather history database for the weather conditions in past years. The results will help you decide how hot, cold, wet, or windy it might be!

Date:

Astronomy

Sep. 25, 2013 Rise Set
Actual Time 6:48 AM MDT 6:47 PM MDT
Civil Twilight 6:17 AM MDT 7:18 PM MDT
Nautical Twilight 5:41 AM MDT 7:54 PM MDT
Astronomical Twilight 5:04 AM MDT 8:31 PM MDT
Moon 10:33 PM MDT (9/25) 1:18 PM MDT (9/25)
Length of Visible Light 13h 01m
Length of Day
11h 59m
Waning Gibbous, 63% of the Moon is Illuminated
Sep 25
Waning Gibbous
Sep 26
Last Quarter
Oct 4
New
Oct 11
First Quarter
Oct 18
Full

Hourly Weather History & Observations

Time (MDT) Temp. Dew Point Humidity Pressure Visibility Wind Dir Wind Speed Gust Speed Precip Events Conditions
12:35 AM 64.4 °F 42.8 °F 45% 29.62 in 10.0 mi South 8.1 mph - N/A   Partly Cloudy
12:55 AM 64.4 °F 42.8 °F 45% 29.62 in 10.0 mi SSE 6.9 mph - N/A   Mostly Cloudy
1:15 AM 64.4 °F 42.8 °F 45% 29.61 in 10.0 mi South 6.9 mph - N/A   Scattered Clouds
1:35 AM 64.4 °F 42.8 °F 45% 29.61 in 10.0 mi SSE 9.2 mph 19.6 mph N/A   Clear
1:55 AM 62.6 °F 41.0 °F 45% 29.61 in 10.0 mi South 8.1 mph - N/A   Clear
2:15 AM 60.8 °F 42.8 °F 52% 29.60 in 10.0 mi SSE 10.4 mph - N/A   Clear
2:35 AM 59.0 °F 41.0 °F 51% 29.59 in 10.0 mi SSE 8.1 mph - N/A   Clear
3:15 AM 55.4 °F 41.0 °F 58% 29.59 in 10.0 mi SSE 6.9 mph - N/A   Clear
3:35 AM 55.4 °F 41.0 °F 58% 29.58 in 10.0 mi Calm Calm - N/A   Clear
3:55 AM 53.6 °F 41.0 °F 62% 29.58 in 10.0 mi SSE 8.1 mph - N/A   Clear
4:15 AM 53.6 °F 39.2 °F 58% 29.59 in 10.0 mi Calm Calm - N/A   Clear
4:55 AM 51.8 °F 41.0 °F 67% 29.58 in 10.0 mi South 6.9 mph - N/A   Clear
5:35 AM 51.8 °F 41.0 °F 67% 29.59 in 10.0 mi Calm Calm - N/A   Clear
5:55 AM 50.0 °F 41.0 °F 71% 29.59 in 10.0 mi SW 9.2 mph - N/A   Clear
6:15 AM 51.8 °F 41.0 °F 67% 29.60 in 10.0 mi SSW 10.4 mph - N/A   Clear
6:35 AM 51.8 °F 41.0 °F 67% 29.61 in 10.0 mi SW 6.9 mph - N/A   Clear
6:55 AM 51.8 °F 42.8 °F 71% 29.62 in 10.0 mi South 8.1 mph - N/A   Clear
7:15 AM 51.8 °F 42.8 °F 71% 29.62 in 10.0 mi SE 4.6 mph - N/A   Clear
7:35 AM 51.8 °F 42.8 °F 71% 29.63 in 10.0 mi South 8.1 mph - N/A   Clear
8:35 AM 55.4 °F 44.6 °F 67% 29.65 in 10.0 mi SSW 5.8 mph - N/A   Clear
8:55 AM 55.4 °F 44.6 °F 67% 29.66 in 10.0 mi West 3.5 mph - N/A   Partly Cloudy
9:15 AM 55.4 °F 44.6 °F 67% 29.69 in 10.0 mi South 10.4 mph - N/A   Scattered Clouds
9:35 AM 55.4 °F 46.4 °F 72% 29.67 in 10.0 mi SSE 3.5 mph - N/A   Mostly Cloudy
10:35 AM 59.0 °F 46.4 °F 63% 29.58 in 10.0 mi NW 13.8 mph 17.3 mph N/A   Clear
10:55 AM 60.8 °F 46.4 °F 59% 29.58 in 10.0 mi NW 11.5 mph 21.9 mph N/A   Clear
11:15 AM 60.8 °F 46.4 °F 59% 29.66 in 10.0 mi West 9.2 mph - N/A   Clear
11:35 AM 60.8 °F 46.4 °F 59% 29.67 in 10.0 mi South 5.8 mph - N/A   Partly Cloudy
12:15 PM 62.6 °F 46.4 °F 55% 29.66 in 10.0 mi WSW 8.1 mph - N/A   Clear
12:35 PM 64.4 °F 46.4 °F 52% 29.64 in 10.0 mi West 8.1 mph - N/A   Clear
12:55 PM 64.4 °F 46.4 °F 52% 29.62 in 10.0 mi WNW 12.7 mph - N/A   Clear
1:15 PM 64.4 °F 44.6 °F 49% 29.63 in 10.0 mi WNW 9.2 mph - N/A   Clear
1:35 PM 66.2 °F 46.4 °F 49% 29.61 in 10.0 mi NW 13.8 mph 17.3 mph N/A   Clear
1:55 PM 66.2 °F 44.6 °F 46% 29.62 in 10.0 mi NW 13.8 mph - N/A   Clear
2:15 PM 66.2 °F 44.6 °F 46% 29.62 in 10.0 mi NW 13.8 mph 17.3 mph N/A   Clear
2:35 PM 66.2 °F 44.6 °F 46% 29.62 in 10.0 mi NW 11.5 mph - N/A   Clear
3:15 PM 66.2 °F 46.4 °F 49% 29.61 in 10.0 mi North 11.5 mph - N/A   Clear
3:35 PM 64.4 °F 46.4 °F 52% 29.61 in 10.0 mi North 8.1 mph - N/A   Clear
3:55 PM 64.4 °F 46.4 °F 52% 29.61 in 10.0 mi NNW 10.4 mph - N/A   Clear
4:15 PM 64.4 °F 46.4 °F 52% 29.62 in 10.0 mi NW 11.5 mph 17.3 mph N/A   Clear
4:35 PM 62.6 °F 46.4 °F 55% 29.63 in 10.0 mi WNW 10.4 mph - N/A   Clear
4:55 PM 62.6 °F 46.4 °F 55% 29.64 in 10.0 mi WNW 12.7 mph - N/A   Clear
5:15 PM 60.8 °F 46.4 °F 59% 29.64 in 10.0 mi WNW 10.4 mph - N/A   Clear
5:35 PM 60.8 °F 46.4 °F 59% 29.64 in 10.0 mi WNW 13.8 mph - N/A   Clear
5:55 PM 59.0 °F 46.4 °F 63% 29.64 in 10.0 mi WNW 15.0 mph 18.4 mph N/A   Clear
6:15 PM 59.0 °F 46.4 °F 63% 29.64 in 10.0 mi WNW 15.0 mph - N/A   Clear
6:35 PM 57.2 °F 46.4 °F 67% 29.63 in 10.0 mi NW 15.0 mph - N/A   Clear
7:55 PM 55.4 °F 44.6 °F 67% 29.66 in 10.0 mi WNW 13.8 mph - N/A   Mostly Cloudy
8:15 PM 55.4 °F 46.4 °F 72% 29.68 in 10.0 mi WNW 15.0 mph - N/A   Overcast
8:35 PM 55.4 °F 46.4 °F 72% 29.65 in 10.0 mi NW 13.8 mph - N/A   Overcast
8:55 PM 53.6 °F 46.4 °F 77% 29.63 in 10.0 mi NW 13.8 mph - N/A   Mostly Cloudy
9:15 PM 53.6 °F 46.4 °F 77% 29.63 in 10.0 mi NW 10.4 mph - N/A   Mostly Cloudy
9:35 PM 53.6 °F 46.4 °F 77% 29.66 in 10.0 mi WNW 10.4 mph - N/A   Overcast
9:55 PM 53.6 °F 46.4 °F 77% 29.64 in 10.0 mi NW 16.1 mph - N/A   Overcast
10:15 PM 51.8 °F 46.4 °F 82% 29.64 in 10.0 mi NW 16.1 mph 21.9 mph N/A   Mostly Cloudy
10:35 PM 51.8 °F 48.2 °F 88% 29.64 in 10.0 mi NW 12.7 mph - N/A   Scattered Clouds
10:55 PM 51.8 °F 48.2 °F 88% 29.66 in 10.0 mi WNW 11.5 mph - N/A   Mostly Cloudy
11:15 PM 51.8 °F 48.2 °F 88% 29.66 in 5.0 mi East 5.8 mph - 0.04 in   Overcast
11:35 PM 51.8 °F 48.2 °F 88% 29.63 in 5.0 mi NNE 6.9 mph - 0.11 in   Overcast
11:55 PM 51.8 °F 48.2 °F 88% 29.65 in 9.0 mi Calm Calm - 0.12 in   Overcast